This is the latest recevied weather packets stored in our database for station/object WX4BK-13. If no packets are shown the sender has not sent any weather packets the latest 1 day(s).
| Time | Temp. | Humidity | Pressure | Rain* | Wind** | Luminosity | Snow |
|---|---|---|---|---|---|---|---|
| 1778011766 | 24.44° C | 4% | - | 0 mm | 1.79 m/s, 241° | - | - |
| 1778011586 | 25° C | 4% | - | 0 mm | 0.45 m/s, 135° | - | - |
| 1778011406 | 24.44° C | 4% | - | 0 mm | 0.89 m/s, 180° | - | - |
| 1778011046 | 25° C | 4% | - | 0 mm | 1.34 m/s, 196° | - | - |
| 1778010866 | 25° C | 4% | - | 0 mm | 2.68 m/s, 166° | - | - |
| 1778010506 | 25° C | 4% | - | 0 mm | 0.89 m/s, 194° | - | - |
| 1778010326 | 25° C | 4% | - | 0 mm | 1.79 m/s, 105° | - | - |
| 1778010146 | 25° C | 4% | - | 0 mm | 1.79 m/s, 243° | - | - |
| 1778009966 | 25° C | 4% | - | 0 mm | 0.89 m/s, 225° | - | - |
| 1778009786 | 25° C | 4% | - | 0 mm | 0.89 m/s, 61° | - | - |
| 1778009606 | 24.44° C | 4% | - | 0 mm | 1.34 m/s, 177° | - | - |
| 1778009426 | 24.44° C | 4% | - | 0 mm | 2.24 m/s, 120° | - | - |
| 1778009246 | 25° C | 4% | - | 0 mm | 1.34 m/s, 194° | - | - |
| 1778009066 | 24.44° C | 4% | - | 0 mm | 2.24 m/s, 181° | - | - |
| 1778008886 | 25° C | 4% | - | 0 mm | 0.89 m/s, 233° | - | - |
| 1778008526 | 24.44° C | 4% | - | 0 mm | 2.24 m/s, 236° | - | - |
| 1778008346 | 24.44° C | 4% | - | 0 mm | 1.34 m/s, 180° | - | - |
| 1778008166 | 24.44° C | 4% | - | 0 mm | 2.68 m/s, 142° | - | - |
| 1778007986 | 24.44° C | 4% | - | 0 mm | 3.13 m/s, 233° | - | - |
| 1778007806 | 24.44° C | 4% | - | 0 mm | 1.34 m/s, 203° | - | - |
| 1778007446 | 24.44° C | 4% | - | 0 mm | 1.34 m/s, 194° | - | - |
| 1778007266 | 23.89° C | 4% | - | 0 mm | 4.47 m/s, 194° | - | - |
| 1778006906 | 23.89° C | 4% | - | 0 mm | 1.79 m/s, 166° | - | - |
| 1778006726 | 23.89° C | 4% | - | 0 mm | 0.89 m/s, 298° | - | - |
| 1778006546 | 23.89° C | 4% | - | 0 mm | 2.68 m/s, 198° | - | - |
* Rain latest hour (hover to see other rain measurements)
** Current wind speed in m/s (hover to see current wind gust speed)